CAPE
1553 1771 1657 1761 1672 1498 1801 1796 1783 1853 2002 2160 2150 2372 2629 2640 2627 2650 2565 2506 2536 2699 2727 2624 2614 2696 2810 3130 3365 3300 3602 2969 3020 3121 3068 3310 3006 2854 2693 2898 2768 2770
2114 1985 2123 1802 1820 2284 2080 1806 1798 1910 1998 2051 2035 2206 2476 2574 2494 2468 2556 2558 2595 2585 2567 2586 2580 2626 2594 3086 3570 3383 3056 3240 2293 3978 3885 3333 2751 2779 2962 3126 2892 2810
2106 2256 1988 1826 1792 2174 2252 2039 1962 2018 2038 2003 2051 2290 2263 2423 2528 2500 2480 2420 2512 2520 2676 2709 2681 2817 2714 2922 3323 3562 3496 3137 2912 2706 3377 2722 2985 3187 3206 3097 2997 2897
2390 2342 2105 1879 1859 2177 2291 2245 2333 2150 2092 2076 2146 2520 2532 2351 2390 2477 2479 3003 2385 2354 2503 2710 2703 2820 2876 3028 3084 3171 3327 3366 2981 2967 3158 3124 2946 3243 3090 3047 3186 2880
2657 2599 2314 2003 1935 2203 2282 2216 2414 2357 2202 2102 2099 2282 2684 2708 2470 2256 2246 2304 2385 2350 2377 2656 2699 2707 2778 2933 2968 2938 2892 2899 2929 3121 3189 3041 2937 2930 3184 3276 2947 2949
2779 2822 2576 2176 2095 2296 2265 2216 2255 2403 2395 2301 2216 2256 2397 2591 2727 2530 2254 2153 2254 2276 2295 2493 2599 2643 2639 2624 2744 2911 2869 2870 2889 3195 3278 3192 3037 2981 3050 3132 3137 2988
2814 2908 2841 2399 2197 2322 2334 2238 2210 2240 2364 2434 2437 2399 2395 2443 2551 2673 2618 2420 2376 2364 2312 2463 2485 2507 2502 2533 2558 2772 2920 2917 2931 3006 3066 3080 3084 3142 3090 2966 2953 3069
2799 2844 2899 2709 2377 2286 2374 2398 2324 2260 2208 2216 2259 2355 2419 2468 2509 2551 2614 2560 2469 2306 2230 2434 2471 2470 2486 2540 2476 2509 2730 2952 3044 3041 3140 3068 3032 3109 3000 2918 3141 3226
2774 2769 2729 2757 2603 2385 2297 2318 2341 2339 2233 1998 1976 2066 2190 2339 2453 2515 2514 2561 2518 2359 2288 2429 2514 2506 2496 2557 2472 2476 2545 2734 2889 2955 2850 2808 2881 2975 3041 3169 3172 3062
2693 2707 2632 2569 2557 2515 2474 2396 2199 2123 2150 2148 2112 2095 2152 2246 2286 2303 2364 2496 2540 2588 2556 2572 2629 2667 2694 2618 2543 2554 2545 2540 2714 2850 2831 2786 2798 2848 2878 2980 2984 2872
2486 2644 2619 2466 2371 2376 2399 2355 2244 2088 1992 2092 2128 2134 2179 2207 2163 2048 2103 2326 2443 2496 2570 2624 2659 2717 2755 2706 2622 2544 2526 2555 2600 2591 2625 2705 2802 2946 3648 3210 3022 2819
2219 2457 2549 2472 2287 2177 2179 2188 2159 2136 2102 1992 2003 2092 2110 1981 1890 1927 1882 2176 2382 2454 2467 2492 2559 2610 2626 2628 2625 2585 2504 2563 2556 2532 2511 2570 2680 2859 2913 2925 2961 2860
2122 2229 2339 2391 2353 2253 2224 2217 2162 2108 2091 1948 1875 1934 1900 1885 1886 1854 1713 1884 2192 2348 2361 2373 2416 2409 2403 2454 2516 2498 2488 2547 2577 2576 2612 2629 2685 2705 2755 2813 2802 2668
2025 2156 2196 2202 2296 2355 2313 2259 2166 1940 1801 1578 1507 1588 1661 1705 1826 1842 1781 1752 1889 2113 2234 2298 2358 2346 2279 2282 2286 2302 2357 2484 2521 2606 2700 2732 2744 2774 2684 2549 2508 2537
1783 1999 2183 2080 2049 2153 2215 2210 2141 1992 1799 1609 1450 1334 1400 1471 1608 1689 1783 1817 1820 1860 1934 2075 2203 2256 2225 2157 2203 2230 2247 2336 2442 2502 2471 2410 2426 2480 2390 2266 2174 2032
1562 1636 1800 1936 1900 1828 1845 1844 1784 1715 1635 1544 1518 1460 1533 1510 1501 1441 1526 1666 1805 1892 1877 1836 1932 2054 2443 3034 2889 2394 2290 2336 2374 2365 2343 2303 2462 2459 2380 2109 1718 1803
1711 1643 1583 1597 1660 1701 1637 1592 1549 1485 1461 1479 1493 1389 1517 1523 1491 1491 1435 1393 1522 1676 1742 1802 1926 2196 2927 2412 2674 2842 3213 2239 2233 2381 2438 2500 2455 2390 2203 1834 1731 1312
1734 1604 1428 1391 1431 1520 1505 1450 1412 1343 1277 1277 1370 1432 1337 1385 1474 1509 1496 1430 1484 1696 1779 1768 1837 1989 2193 2292 2382 2500 2720 2797 2701 2610 2573 2546 2498 2391 2388 1984 1164 1015
1666 1572 1334 1265 1299 1383 1347 1334 1304 1250 1142 1052 972 934 1104 1224 1325 1442 1481 1490 1394 1441 1767 1847 1815 1850 1875 1796 1957 2200 2418 2580 2629 2665 2685 2644 2596 2547 2485 2281 1746 1608
1576 1524 1298 1195 1210 1363 1568 1584 1337 1044 971 962 961 895 885 946 1097 1248 1298 1335 1336 1344 1335 1599 1771 1815 1779 1772 1883 1960 2106 2279 2365 2260 2208 2292 2332 2263 2032 1639 1273 1157
1509 1446 1240 1141 1200 1466 1649 1687 1521 1340 1206 1124 1143 1286 1233 1107 1048 1079 1173 1236 1296 1301 1250 1234 1414 1621 1792 1885 1901 1908 1909 1858 1745 1539 1222 1070 1114 1251 1218 1147 1154 1116
1269 1200 1093 1078 1125 1398 1637 1780 1704 1544 1442 1368 1345 1394 1402 1330 1193 1070 1081 1142 1201 1222 1196 1118 1155 1179 1137 1164 1304 1444 1547 1582 1469 1350 1113 883 1152 1416 1737 1656 1306 1017
1125 1231 1134 1027 987 1074 1264 1465 1648 1724 1639 1583 1584 1618 1568 1376 1210 1157 1092 1095 1138 1154 1118 974 930 843 648 683 798 885 979 1286 1409 1299 1303 1561 1719 1864 1904 1650 1472 1311
1601 1560 1268 935 953 846 972 1195 1426 1634 1748 1811 1758 1760 1759 1748 1617 1195 924 896 853 804 682 670 600 501 493 492 465 460 875 1305 1568 1464 1506 1766 1824 1831 1852 1798 1655 1486
1903 1887 1760 1422 1082 1019 925 1086 1312 1526 1639 1718 1808 1845 1892 1826 1580 1358 1332 1176 878 762 669 595 536 498 453 415 361 429 621 1045 1508 1592 1523 1777 1803 1742 1685 1582 1435 1336
1418 1656 1758 1628 1544 1557 1364 1275 963 888 1185 1476 1604 1681 1743 1714 1557 1228 1253 1538 1657 1450 1269 1085 916 797 716 702 713 683 637 637 1048 1483 1585 1639 1636 1601 1523 1460 1362 1334
Wind_Speed
10 10 8 8 7 6 5 5 4 2 2 2 2 3 2 2 3 3 5 7 8 9 9 9 8 8 9 8 7 7 7 6 6 6 6 6 6 7 8 9 9 8
11 10 10 10 9 9 8 6 4 3 3 3 3 4 4 4 4 4 5 6 7 8 8 8 8 7 7 6 7 6 7 7 7 5 6 6 4 5 5 6 6 5
13 13 11 10 9 9 8 8 7 6 5 4 4 5 4 5 5 5 5 6 6 7 7 6 6 6 5 5 5 5 5 6 6 5 4 4 4 5 4 4 4 5
12 11 11 10 10 9 10 10 9 9 8 6 4 4 5 6 6 5 6 6 6 6 6 5 4 4 4 3 3 4 4 5 4 4 4 4 3 3 3 3 3 3
11 11 11 10 11 11 11 10 9 8 7 5 5 5 4 5 6 6 6 6 6 5 5 4 3 3 2 2 1 2 3 3 4 3 2 3 3 2 2 3 3 2
12 12 11 10 10 10 9 8 7 7 7 6 4 5 4 4 5 5 5 5 5 5 4 3 2 2 1 1 2 1 1 1 2 1 0 1 2 2 1 1 1 1
12 13 13 12 12 10 9 8 8 8 6 5 7 5 5 4 5 5 5 5 5 5 4 4 3 2 3 3 3 2 2 2 1 2 2 0 1 2 1 1 1 1
12 13 13 14 12 11 9 9 8 7 7 8 5 5 5 4 4 5 6 5 5 4 5 4 4 3 3 4 4 3 3 3 2 3 3 2 3 1 1 2 2 2
12 12 13 13 12 11 9 9 8 7 8 7 6 6 7 6 5 6 6 6 6 5 5 5 4 4 4 5 4 5 4 4 4 5 4 3 4 3 3 4 4 4
10 11 11 12 12 12 10 10 9 8 8 7 6 7 7 7 7 7 7 7 6 6 6 5 5 5 5 5 5 5 5 4 5 6 5 5 5 4 4 5 5 6
10 10 10 10 10 12 11 10 9 9 9 8 8 8 8 8 8 9 9 8 7 7 7 6 6 7 7 6 5 6 6 5 6 6 6 6 5 5 5 6 6 7
11 10 10 10 10 11 11 10 10 10 10 9 9 8 9 9 9 9 9 8 8 8 8 8 8 9 8 7 6 6 6 6 6 6 7 7 7 7 7 8 8 7
13 12 11 11 11 11 12 12 11 10 10 9 10 10 10 10 10 10 10 10 9 10 10 10 10 10 9 9 8 8 8 7 6 6 7 8 8 8 8 9 8 7
15 15 14 13 12 12 12 12 11 11 10 10 11 10 10 11 11 11 11 11 11 12 12 12 12 11 11 10 10 10 11 10 8 8 8 8 7 8 9 9 10 9
19 18 17 16 14 13 12 12 12 11 11 10 10 10 11 10 11 11 12 11 12 13 13 14 13 12 12 13 12 12 13 12 11 10 10 9 8 7 8 9 10 11
21 20 19 18 17 16 15 15 14 14 12 12 11 11 11 11 11 11 11 11 12 13 14 14 14 14 13 12 14 15 14 14 14 13 13 12 11 10 9 10 11 12
23 22 21 19 18 18 18 18 17 17 16 15 15 15 14 14 14 13 12 12 12 13 14 14 15 16 15 15 14 13 16 17 16 15 15 14 14 14 13 13 14 15
23 23 22 20 20 19 20 20 21 21 21 20 19 18 18 18 17 16 16 15 15 15 16 16 18 20 20 19 18 17 17 19 19 18 18 18 17 16 17 17 18 19
24 24 21 22 23 24 24 23 22 23 23 23 21 21 22 21 19 20 19 18 18 18 18 18 20 23 21 21 20 19 18 19 21 21 21 20 20 19 20 20 22 22
28 27 27 29 30 31 31 30 29 28 28 28 26 25 24 22 22 22 22 21 20 19 20 22 23 25 25 23 21 20 20 21 21 22 21 21 21 21 22 23 24 24
27 27 27 28 30 32 33 33 33 32 31 31 30 28 25 23 24 24 23 24 24 25 25 25 26 28 26 25 23 22 22 22 22 22 22 21 22 23 25 26 26 27
26 25 25 27 29 31 32 31 31 31 31 31 32 31 30 29 28 28 28 29 30 29 28 28 28 30 28 28 26 25 23 24 24 24 25 25 25 26 26 27 29 29
28 25 23 25 28 31 33 33 33 32 31 31 33 32 31 30 30 30 31 32 33 32 32 32 31 32 31 30 28 27 27 27 27 27 27 26 26 26 26 27 28 29
34 29 26 27 30 33 37 37 35 34 32 32 32 33 34 34 33 31 31 32 33 34 33 33 31 30 30 29 29 29 28 29 29 29 28 27 27 27 28 28 28 31
36 33 29 29 31 38 41 39 36 36 36 36 36 35 35 34 33 31 31 32 32 33 36 34 31 31 33 31 29 27 29 31 32 31 29 28 31 32 32 31 30 34
30 29 28 27 34 42 41 39 36 36 35 35 35 36 36 36 34 35 38 38 36 36 35 34 34 34 35 34 31 28 28 32 33 32 29 32 35 35 34 34 36 37
Wind_Direction
188 188 185 187 188 190 198 195 186 191 162 166 161 145 141 141 161 143 131 140 139 133 133 131 130 129 130 136 138 142 152 160 162 172 180 192 193 192 193 193 205 215
195 197 195 198 200 201 203 203 206 205 190 183 165 170 172 182 160 160 142 141 140 132 133 131 130 127 129 130 131 132 143 148 152 166 177 187 192 205 206 203 201 214
200 202 204 207 207 208 210 204 211 207 208 194 191 189 183 183 171 165 154 150 142 131 132 130 131 129 126 128 127 128 137 143 143 161 188 178 187 196 207 224 215 225
199 203 205 204 207 209 210 212 208 208 206 210 203 203 196 183 181 168 159 153 153 140 137 140 127 132 125 125 129 128 141 143 141 177 184 180 166 194 191 235 237 230
199 199 200 201 204 207 212 211 210 211 209 208 214 213 202 185 184 173 167 162 165 154 156 145 149 143 133 140 165 141 145 132 148 177 176 150 145 183 180 224 224 223
201 203 203 205 208 215 218 215 213 219 217 219 216 224 207 192 187 182 178 172 174 168 171 170 175 165 202 226 249 223 162 127 140 255 263 118 126 176 214 224 232 239
214 214 212 212 214 218 223 223 222 224 230 224 225 221 219 208 198 190 191 190 193 197 198 203 199 199 215 244 265 273 280 287 247 285 309 334 297 124 195 270 287 267
225 228 225 222 224 224 224 227 227 230 230 226 226 217 227 224 221 213 213 216 220 218 221 222 229 239 242 256 268 269 262 277 278 267 271 257 262 248 213 291 288 275
233 237 238 235 234 232 231 231 232 235 238 239 228 220 226 230 235 237 234 234 233 240 247 246 255 260 261 274 276 277 275 266 272 272 268 256 255 261 266 267 266 275
235 238 245 245 242 240 240 235 238 238 242 247 240 236 239 232 237 243 243 243 243 247 256 260 268 268 269 278 290 288 289 284 276 275 273 273 273 266 264 273 282 273
235 237 242 247 248 245 247 245 244 245 245 249 250 248 246 244 241 244 246 251 257 260 262 263 268 272 274 279 281 285 295 294 284 279 280 284 283 276 270 270 273 284
237 238 241 246 248 248 253 252 250 250 252 251 258 259 253 252 255 254 255 259 262 266 269 269 267 270 276 280 285 286 287 285 286 286 290 287 283 279 273 268 267 269
243 242 241 243 246 249 253 253 254 254 256 258 260 263 262 257 255 259 257 261 263 263 265 268 270 271 275 281 284 284 287 283 280 283 280 282 281 285 281 275 274 272
248 244 242 243 245 248 253 257 257 256 255 256 258 263 264 261 259 260 257 258 262 263 264 265 269 270 272 277 280 284 285 284 284 281 281 279 283 285 283 281 282 282
248 245 243 244 247 249 251 253 255 255 254 253 253 257 261 264 263 264 260 258 257 259 259 260 266 271 271 274 275 274 274 278 278 278 278 278 277 275 273 274 273 276
248 246 245 245 247 249 248 249 249 250 251 250 251 253 255 259 263 266 266 265 261 258 255 255 257 259 263 280 274 268 271 272 272 273 274 277 279 274 266 268 270 269
244 244 245 247 248 247 246 246 246 245 244 243 246 248 248 249 252 255 258 257 259 259 258 255 254 255 267 266 267 267 263 266 270 272 274 277 278 278 275 267 266 269
243 243 243 244 245 247 246 246 245 244 241 238 238 240 243 245 246 247 246 246 248 251 256 258 257 258 262 260 262 267 267 267 270 273 278 281 280 279 275 272 273 272
246 245 246 244 242 240 239 244 250 249 249 248 248 247 246 248 249 250 250 247 246 249 251 255 258 259 261 258 258 260 262 267 270 274 278 282 282 281 280 280 279 279
248 248 246 244 242 241 240 237 239 243 245 246 248 253 257 256 255 258 257 257 257 256 253 251 251 250 251 253 255 259 264 267 267 272 275 278 281 283 285 287 288 288
244 250 250 249 248 249 247 246 244 241 239 240 242 244 249 258 264 264 263 263 261 259 258 256 250 245 247 251 252 254 257 264 266 269 274 278 282 285 287 288 288 287
229 238 252 253 253 253 254 254 254 254 251 245 243 241 241 243 247 253 260 261 259 259 259 258 251 244 243 245 250 254 258 265 268 271 274 276 277 278 281 283 285 286
254 247 249 259 258 256 255 252 250 246 245 249 249 247 244 242 243 247 251 255 256 256 257 254 251 246 243 243 245 250 260 264 266 269 271 273 276 277 279 281 282 283
238 239 247 253 255 256 251 247 248 252 250 247 247 248 247 245 239 239 245 252 255 254 255 255 252 250 248 246 247 249 258 264 266 270 269 271 272 271 271 273 277 284
243 242 237 241 249 251 249 246 247 254 255 252 249 245 247 249 249 247 245 250 254 255 255 252 250 249 245 241 244 254 262 265 270 272 274 274 272 267 263 265 268 273
245 244 246 247 251 254 254 256 260 264 264 259 253 250 251 252 256 252 249 246 248 251 251 249 249 247 245 239 241 247 259 264 265 272 275 275 270 271 275 273 274 273